User: anonymous   Login
Location: Campo Alegre
(10.1673°N, 67.4431°W)
Time: 13:07:09
(UTC+00:00)
Language:

CRYOSAT 2 - Orbit

View from above orbital plane
View from above orbital plane
View from above satellite
View from above satellite

Ground track
Ground track

The orbit data is extracted from the following two-line orbital elements,

1 36508U 10013A   24167.90923799  .00000388  00000-0  95749-4 0  9992
2 36508  92.0345 100.7146 0000930 357.0970   3.0232 14.51895434751972
Epoch (UTC): 15 June 2024 21:49:18
Eccentricity: 0.0000930
inclination: 92.0345°
perigee height: 719 km
apogee height: 720 km
right ascension of ascending node: 100.7146°
argument of perigee: 357.0970°
revolutions per day: 14.51895434
mean anomaly at epoch: 3.0232°
orbit number at epoch: 75197

The dashed part of the orbit path shows where the satellite is in the earth's shadow,  

DLR